| time (UTC) | temp F | wind direction | speed MPH | gust MPH | rain 1hr in | rain 24hr in | rain mn in | humidity % | barometer mb |
| 20260902123300 | 94 | 266 | 6.0 | 10.0 | 0.00 | 0.00 | 0.00 | 39 | 1014.6 |
| 20260902122800 | 94 | 243 | 5.0 | 9.0 | 0.00 | 0.00 | 0.00 | 41 | 1014.6 |
| 20260902122300 | 94 | 250 | 5.0 | 9.0 | 0.00 | 0.00 | 0.00 | 40 | 1014.6 |
| 20260902121800 | 94 | 233 | 3.0 | 10.0 | 0.00 | 0.00 | 0.00 | 39 | 1014.7 |
| 20260902121300 | 94 | 271 | 2.0 | 3.0 | 0.00 | 0.00 | 0.00 | 40 | 1014.8 |
| 20260902120800 | 94 | 283 | 5.0 | 9.0 | 0.00 | 0.00 | 0.00 | 39 | 1014.8 |
| 20260902120300 | 94 | 277 | 5.0 | 8.0 | 0.00 | 0.00 | 0.00 | 40 | 1015.0 |
| 20260902115800 | 94 | 310 | 5.0 | 9.0 | 0.00 | 0.00 | 0.00 | 42 | 1014.9 |
| 20260902115300 | 94 | 274 | 4.0 | 9.0 | 0.00 | 0.00 | 0.00 | 39 | 1015.0 |
| 20260902114800 | 94 | 289 | 2.0 | 8.0 | 0.00 | 0.00 | 0.00 | 40 | 1014.9 |
| 20260902114300 | 94 | 219 | 2.0 | 4.0 | 0.00 | 0.00 | 0.00 | 39 | 1015.1 |
| 20260902113800 | 93 | 266 | 4.0 | 8.0 | 0.00 | 0.00 | 0.00 | 39 | 1015.2 |
| 20260902113300 | 94 | 355 | 3.0 | 9.0 | 0.00 | 0.00 | 0.00 | 39 | 1015.2 |
| 20260902112800 | 94 | 344 | 2.0 | 5.0 | 0.00 | 0.00 | 0.00 | 42 | 1015.4 |
| 20260902112300 | 94 | 9 | 2.0 | 5.0 | 0.00 | 0.00 | 0.00 | 44 | 1015.4 |
| 20260902111800 | 94 | 186 | 2.0 | 3.0 | 0.00 | 0.00 | 0.00 | 38 | 1015.4 |
| 20260902111300 | 93 | 28 | 3.0 | 6.0 | 0.00 | 0.00 | 0.00 | 39 | 1015.5 |
| 20260902110800 | 93 | 35 | 3.0 | 7.0 | 0.00 | 0.00 | 0.00 | 39 | 1015.5 |
| 20260902110300 | 94 | 342 | 2.0 | 4.0 | 0.00 | 0.00 | 0.00 | 41 | 1015.5 |
| 20260902105800 | 93 | 318 | 2.0 | 4.0 | 0.00 | 0.00 | 0.00 | 40 | 1015.6 |
| 20260902105300 | 93 | 213 | 2.0 | 4.0 | 0.00 | 0.00 | 0.00 | 39 | 1015.6 |
| 20260902104800 | 93 | 344 | 2.0 | 3.0 | 0.00 | 0.00 | 0.00 | 40 | 1015.6 |
| 20260902104300 | 93 | 55 | 3.0 | 7.0 | 0.00 | 0.00 | 0.00 | 39 | 1015.6 |
| 20260902103800 | 92 | 48 | 4.0 | 8.0 | 0.00 | 0.00 | 0.00 | 40 | 1015.7 |
| 20260902103300 | 92 | 26 | 5.0 | 9.0 | 0.00 | 0.00 | 0.00 | 39 | 1015.8 |
| 20260902102800 | 92 | 341 | 4.0 | 10.0 | 0.00 | 0.00 | 0.00 | 39 | 1015.8 |
| 20260902102300 | 92 | 58 | 4.0 | 6.0 | 0.00 | 0.00 | 0.00 | 41 | 1015.9 |
| 20260902101800 | 92 | 106 | 5.0 | 9.0 | 0.00 | 0.00 | 0.00 | 42 | 1015.9 |
| 20260902101300 | 92 | 54 | 5.0 | 9.0 | 0.00 | 0.00 | 0.00 | 40 | 1015.9 |
| 20260902100800 | 92 | 34 | 5.0 | 10.0 | 0.00 | 0.00 | 0.00 | 44 | 1015.9 |
| 20260902100300 | 91 | 76 | 5.0 | 10.0 | 0.00 | 0.00 | 0.00 | 40 | 1016.1 |
| 20260902095800 | 91 | 110 | 5.0 | 8.0 | 0.00 | 0.00 | 0.00 | 42 | 1016.1 |
| 20260902095300 | 91 | 117 | 5.0 | 12.0 | 0.00 | 0.00 | 0.00 | 41 | 1016.2 |
| 20260902094800 | 91 | 142 | 5.0 | 7.0 | 0.00 | 0.00 | 0.00 | 40 | 1016.3 |
| 20260902094300 | 91 | 98 | 5.0 | 10.0 | 0.00 | 0.00 | 0.00 | 40 | 1016.4 |
| 20260902093800 | 91 | 61 | 4.0 | 9.0 | 0.00 | 0.00 | 0.00 | 44 | 1016.3 |
| 20260902093300 | 91 | 107 | 5.0 | 8.0 | 0.00 | 0.00 | 0.00 | 42 | 1016.3 |
| 20260902092800 | 90 | 55 | 5.0 | 12.0 | 0.00 | 0.00 | 0.00 | 42 | 1016.4 |
| 20260902092300 | 90 | 131 | 5.0 | 9.0 | 0.00 | 0.00 | 0.00 | 41 | 1016.4 |
| 20260902091800 | 90 | 56 | 8.0 | 13.0 | 0.00 | 0.00 | 0.00 | 43 | 1016.5 |
| 20260902091300 | 90 | 53 | 9.0 | 16.0 | 0.00 | 0.00 | 0.00 | 42 | 1016.4 |
| 20260902090800 | 90 | 46 | 9.0 | 14.0 | 0.00 | 0.00 | 0.00 | 42 | 1016.6 |
| 20260902090300 | 89 | 85 | 11.0 | 14.0 | 0.00 | 0.00 | 0.00 | 42 | 1016.6 |
| 20260902085800 | 89 | 55 | 10.0 | 18.0 | 0.00 | 0.00 | 0.00 | 42 | 1016.5 |
| 20260902085300 | 89 | 52 | 9.0 | 18.0 | 0.00 | 0.00 | 0.00 | 42 | 1016.5 |
| 20260902084800 | 89 | 342 | 10.0 | 15.0 | 0.00 | 0.00 | 0.00 | 42 | 1016.5 |
| 20260902084300 | 89 | 53 | 11.0 | 19.0 | 0.00 | 0.00 | 0.00 | 42 | 1016.6 |
| 20260902083800 | 89 | 63 | 10.0 | 16.0 | 0.00 | 0.00 | 0.00 | 42 | 1016.6 |
| 20260902083300 | 89 | 78 | 11.0 | 13.0 | 0.00 | 0.00 | 0.00 | 43 | 1016.6 |
| 20260902082800 | 88 | 53 | 11.0 | 16.0 | 0.00 | 0.00 | 0.00 | 42 | 1016.6 |
| 20260902082300 | 88 | 59 | 10.0 | 17.0 | 0.00 | 0.00 | 0.00 | 43 | 1016.6 |
| 20260902081800 | 88 | 86 | 10.0 | 16.0 | 0.00 | 0.00 | 0.00 | 44 | 1016.6 |
| 20260902081300 | 88 | 5 | 11.0 | 14.0 | 0.00 | 0.00 | 0.00 | 43 | 1016.6 |
| 20260902080827 | 87 | 68 | 12.0 | 14.0 | 0.00 | 0.00 | 0.00 | 44 | 1016.7 |
| 20260902080316 | 87 | 55 | 10.0 | 18.0 | 0.00 | 0.00 | 0.00 | 44 | 1016.7 |
| 20260902075800 | 87 | 65 | 10.0 | 18.0 | 0.00 | 0.00 | 0.00 | 44 | 1016.7 |
| 20260902075300 | 87 | 40 | 11.0 | 15.0 | 0.00 | 0.00 | 0.00 | 45 | 1016.7 |
| 20260902074800 | 87 | 38 | 11.0 | 15.0 | 0.00 | 0.00 | 0.00 | 44 | 1016.8 |
| 20260902074300 | 87 | 40 | 12.0 | 15.0 | 0.00 | 0.00 | 0.00 | 45 | 1016.7 |
| 20260902073804 | 86 | 56 | 12.0 | 18.0 | 0.00 | 0.00 | 0.00 | 45 | 1016.7 |
| 20260902073308 | 86 | 76 | 11.0 | 18.0 | 0.00 | 0.00 | 0.00 | 46 | 1016.7 |
| 20260902072801 | 86 | 74 | 10.0 | 16.0 | 0.00 | 0.00 | 0.00 | 45 | 1016.7 |
| 20260902072300 | 86 | 91 | 10.0 | 17.0 | 0.00 | 0.00 | 0.00 | 46 | 1016.6 |
| 20260902071801 | 85 | 66 | 11.0 | 19.0 | 0.00 | 0.00 | 0.00 | 47 | 1016.6 |
| 20260902071300 | 85 | 55 | 11.0 | 18.0 | 0.00 | 0.00 | 0.00 | 46 | 1016.6 |
| 20260902070800 | 85 | 39 | 11.0 | 14.0 | 0.00 | 0.00 | 0.00 | 47 | 1016.6 |
| 20260902070301 | 85 | 110 | 13.0 | 22.0 | 0.00 | 0.00 | 0.00 | 45 | 1016.7 |
| 20260902065801 | 85 | 63 | 14.0 | 19.0 | 0.00 | 0.00 | 0.00 | 46 | 1016.6 |
| 20260902065301 | 85 | 84 | 13.0 | 22.0 | 0.00 | 0.00 | 0.00 | 47 | 1016.6 |
| 20260902064801 | 84 | 88 | 11.0 | 19.0 | 0.00 | 0.00 | 0.00 | 47 | 1016.7 |
| 20260902064301 | 84 | 80 | 11.0 | 12.0 | 0.00 | 0.00 | 0.00 | 49 | 1016.6 |
| 20260902063801 | 84 | 92 | 12.0 | 18.0 | 0.00 | 0.00 | 0.00 | 48 | 1016.6 |
| 20260902063301 | 84 | 62 | 12.0 | 20.0 | 0.00 | 0.00 | 0.00 | 48 | 1016.6 |
| 20260902062801 | 84 | 111 | 13.0 | 20.0 | 0.00 | 0.00 | 0.00 | 48 | 1016.6 |
| 20260902062301 | 84 | 92 | 13.0 | 18.0 | 0.00 | 0.00 | 0.00 | 48 | 1016.6 |
| 20260902061803 | 83 | 79 | 13.0 | 19.0 | 0.00 | 0.00 | 0.00 | 49 | 1016.5 |
| 20260902061301 | 83 | 82 | 13.0 | 20.0 | 0.00 | 0.00 | 0.00 | 48 | 1016.6 |
| 20260902060801 | 83 | 92 | 12.0 | 20.0 | 0.00 | 0.00 | 0.00 | 49 | 1016.6 |
| 20260902060301 | 83 | 85 | 10.0 | 19.0 | 0.00 | 0.00 | 0.00 | 48 | 1016.5 |
| 20260902055801 | 83 | 117 | 8.0 | 11.0 | 0.00 | 0.00 | 0.00 | 49 | 1016.6 |
| 20260902055301 | 83 | 49 | 9.0 | 15.0 | 0.00 | 0.00 | 0.00 | 50 | 1016.5 |
| 20260902054801 | 83 | 88 | 8.0 | 17.0 | 0.00 | 0.00 | 0.00 | 49 | 1016.6 |
| 20260902054301 | 82 | 61 | 6.0 | 10.0 | 0.00 | 0.00 | 0.00 | 50 | 1016.4 |
| 20260902053801 | 82 | 113 | 7.0 | 13.0 | 0.00 | 0.00 | 0.00 | 51 | 1016.6 |
| 20260902053301 | 82 | 66 | 5.0 | 14.0 | 0.00 | 0.00 | 0.00 | 51 | 1016.6 |
| 20260902052801 | 82 | 96 | 2.0 | 7.0 | 0.00 | 0.00 | 0.00 | 55 | 1016.5 |
| 20260902052301 | 81 | 77 | 2.0 | 3.0 | 0.00 | 0.00 | 0.00 | 55 | 1016.5 |
| 20260902051801 | 81 | 107 | 2.0 | 7.0 | 0.00 | 0.00 | 0.00 | 54 | 1016.5 |
| 20260902051301 | 81 | 120 | 3.0 | 6.0 | 0.00 | 0.00 | 0.00 | 53 | 1016.5 |
| 20260902050801 | 81 | 115 | 4.0 | 10.0 | 0.00 | 0.00 | 0.00 | 53 | 1016.6 |
| 20260902050303 | 82 | 94 | 4.0 | 9.0 | 0.00 | 0.00 | 0.00 | 53 | 1016.6 |
| 20260902045801 | 82 | 150 | 5.0 | 10.0 | 0.00 | 0.00 | 0.00 | 52 | 1016.6 |
| 20260902045301 | 81 | 92 | 5.0 | 7.0 | 0.00 | 0.00 | 0.00 | 53 | 1016.6 |
| 20260902044801 | 82 | 87 | 5.0 | 10.0 | 0.00 | 0.00 | 0.00 | 52 | 1016.5 |
| 20260902044301 | 82 | 64 | 5.0 | 8.0 | 0.00 | 0.00 | 0.00 | 53 | 1016.5 |
| 20260902043801 | 81 | 93 | 5.0 | 9.0 | 0.00 | 0.00 | 0.00 | 52 | 1016.4 |
| 20260902043301 | 81 | 100 | 3.0 | 8.0 | 0.00 | 0.00 | 0.00 | 54 | 1016.4 |
| 20260902042801 | 80 | 85 | 3.0 | 4.0 | 0.00 | 0.00 | 0.00 | 55 | 1016.4 |
| 20260902042301 | 81 | 69 | 3.0 | 6.0 | 0.00 | 0.00 | 0.00 | 55 | 1016.3 |
| 20260902041801 | 81 | 111 | 4.0 | 6.0 | 0.00 | 0.00 | 0.00 | 55 | 1016.3 |
| 20260902041301 | 81 | 51 | 4.0 | 7.0 | 0.00 | 0.00 | 0.00 | 54 | 1016.3 |
| 20260902040801 | 81 | 111 | 3.0 | 6.0 | 0.00 | 0.00 | 0.00 | 56 | 1016.2 |
| 20260902040301 | 81 | 43 | 4.0 | 6.0 | 0.00 | 0.00 | 0.00 | 55 | 1016.1 |
| 20260902035801 | 80 | 58 | 3.0 | 10.0 | 0.00 | 0.00 | 0.00 | 55 | 1016.1 |
| 20260902035301 | 80 | 94 | 2.0 | 4.0 | 0.00 | 0.00 | 0.00 | 57 | 1016.1 |
| 20260902034801 | 80 | 78 | 2.0 | 4.0 | 0.00 | 0.00 | 0.00 | 57 | 1016.1 |
| 20260902034301 | 80 | 133 | 2.0 | 8.0 | 0.00 | 0.00 | 0.00 | 57 | 1016.1 |
| 20260902033801 | 80 | 90 | 3.0 | 4.0 | 0.00 | 0.00 | 0.00 | 58 | 1016.0 |
| 20260902033301 | 80 | 124 | 3.0 | 5.0 | 0.00 | 0.00 | 0.00 | 58 | 1016.0 |
| 20260902032801 | 80 | 132 | 3.0 | 6.0 | 0.00 | 0.00 | 0.00 | 58 | 1016.1 |
| 20260902032301 | 80 | 102 | 2.0 | 4.0 | 0.00 | 0.00 | 0.00 | 58 | 1016.0 |
| 20260902031801 | 80 | 142 | 2.0 | 4.0 | 0.00 | 0.00 | 0.00 | 58 | 1016.1 |
| 20260902031301 | 80 | 54 | 2.0 | 5.0 | 0.00 | 0.00 | 0.00 | 58 | 1016.0 |
| 20260902030801 | 81 | 173 | 3.0 | 5.0 | 0.00 | 0.00 | 0.00 | 58 | 1016.0 |
| 20260902030301 | 81 | 80 | 5.0 | 8.0 | 0.00 | 0.00 | 0.00 | 57 | 1016.0 |
| 20260902025801 | 81 | 89 | 4.0 | 9.0 | 0.00 | 0.00 | 0.00 | 57 | 1016.1 |
| 20260902025301 | 81 | 58 | 3.0 | 4.0 | 0.00 | 0.00 | 0.00 | 58 | 1016.1 |
| 20260902024801 | 81 | 114 | 2.0 | 6.0 | 0.00 | 0.00 | 0.00 | 59 | 1016.1 |
| 20260902024301 | 81 | 139 | 3.0 | 3.0 | 0.00 | 0.00 | 0.00 | 60 | 1016.1 |
| 20260902023801 | 81 | 92 | 5.0 | 5.0 | 0.00 | 0.00 | 0.00 | 58 | 1016.1 |
| 20260902023301 | 81 | 78 | 5.0 | 12.0 | 0.00 | 0.00 | 0.00 | 59 | 1016.1 |
| 20260902022801 | 81 | 56 | 6.0 | 10.0 | 0.00 | 0.00 | 0.00 | 60 | 1016.1 |
| 20260902022301 | 80 | 83 | 4.0 | 13.0 | 0.00 | 0.00 | 0.00 | 63 | 1016.0 |
| 20260902021801 | 78 | 82 | 2.0 | 5.0 | 0.00 | 0.00 | 0.00 | 69 | 1016.1 |
| 20260902021301 | 77 | 71 | 1.0 | 7.0 | 0.00 | 0.00 | 0.00 | 72 | 1016.1 |
| 20260902020801 | 77 | 170 | 2.0 | 2.0 | 0.00 | 0.00 | 0.00 | 76 | 1016.0 |
| 20260902020301 | 76 | 169 | 2.0 | 5.0 | 0.00 | 0.00 | 0.00 | 77 | 1016.1 |
| 20260902015801 | 75 | 163 | 1.0 | 3.0 | 0.00 | 0.00 | 0.00 | 81 | 1016.1 |
| 20260902015301 | 75 | 96 | 1.0 | 2.0 | 0.00 | 0.00 | 0.00 | 83 | 1016.2 |
| 20260902014801 | 74 | 96 | 1.0 | 4.0 | 0.00 | 0.00 | 0.00 | 85 | 1016.1 |
| 20260902014301 | 74 | 61 | 1.0 | 2.0 | 0.00 | 0.00 | 0.00 | 87 | 1016.1 |
| 20260902013801 | 74 | 123 | 0.0 | 2.0 | 0.00 | 0.00 | 0.00 | 88 | 1016.0 |
| 20260902013301 | 74 | 165 | 1.0 | 2.0 | 0.00 | 0.00 | 0.00 | 89 | 1016.0 |
| 20260902012801 | 73 | 165 | 2.0 | 5.0 | 0.00 | 0.00 | 0.00 | 90 | 1016.0 |
| 20260902012301 | 73 | 116 | 1.0 | 3.0 | 0.00 | 0.00 | 0.00 | 92 | 1016.0 |
| 20260902011801 | 73 | 186 | 0.0 | 4.0 | 0.00 | 0.00 | 0.00 | 91 | 1016.0 |
| 20260902011301 | 73 | 159 | 0.0 | 0.0 | 0.00 | 0.00 | 0.00 | 93 | 1016.1 |
| 20260902010801 | 74 | 37 | 0.0 | 0.0 | 0.00 | 0.00 | 0.00 | 93 | 1016.0 |
| 20260902010301 | 74 | 267 | 0.0 | 0.0 | 0.00 | 0.00 | 0.00 | 93 | 1016.1 |
| 20260902005801 | 74 | 267 | 0.0 | 0.0 | 0.00 | 0.00 | 0.00 | 93 | 1016.0 |
| 20260902005301 | 74 | 268 | 0.0 | 0.0 | 0.00 | 0.00 | 0.00 | 93 | 1016.1 |
| 20260902004801 | 74 | 264 | 1.0 | 1.0 | 0.00 | 0.00 | 0.00 | 92 | 1016.2 |
| 20260902004301 | 75 | 264 | 2.0 | 4.0 | 0.00 | 0.00 | 0.00 | 93 | 1016.1 |
| 20260902003801 | 75 | 268 | 2.0 | 3.0 | 0.00 | 0.00 | 0.00 | 94 | 1016.0 |
| 20260902003301 | 74 | 302 | 1.0 | 2.0 | 0.00 | 0.00 | 0.00 | 92 | 1016.1 |
| 20260902002801 | 74 | 304 | 1.0 | 3.0 | 0.00 | 0.00 | 0.00 | 93 | 1016.1 |
| 20260902002301 | 74 | 304 | 0.0 | 2.0 | 0.00 | 0.00 | 0.00 | 92 | 1016.2 |
| 20260902001801 | 75 | 304 | 1.0 | 2.0 | 0.00 | 0.00 | 0.00 | 93 | 1016.0 |
| 20260902001301 | 75 | 304 | 2.0 | 4.0 | 0.00 | 0.00 | 0.00 | 93 | 1016.1 |
| 20260902000801 | 76 | 56 | 1.0 | 4.0 | 0.00 | 0.00 | 0.00 | 93 | 1016.1 |
| 20260902000301 | 75 | 5 | 0.0 | 0.0 | 0.00 | 0.00 | 0.00 | 94 | 1016.1 |
| 20260901235801 | 75 | 5 | 0.0 | 0.0 | 0.00 | 0.00 | 0.00 | 93 | 1016.0 |
| 20260901235306 | 75 | 26 | 0.0 | 1.0 | 0.00 | 0.00 | 0.00 | 93 | 1016.1 |
| 20260901234801 | 75 | 26 | 1.0 | 2.0 | 0.00 | 0.00 | 0.00 | 93 | 1016.0 |
| 20260901234301 | 75 | 26 | 1.0 | 3.0 | 0.00 | 0.00 | 0.00 | 93 | 1016.1 |
| 20260901233801 | 75 | 26 | 1.0 | 3.0 | 0.00 | 0.00 | 0.00 | 93 | 1016.0 |
| 20260901233301 | 74 | 26 | 1.0 | 4.0 | 0.00 | 0.00 | 0.00 | 93 | 1016.0 |
| 20260901232801 | 75 | 22 | 0.0 | 3.0 | 0.00 | 0.00 | 0.00 | 92 | 1016.1 |
| 20260901232301 | 75 | 167 | 0.0 | 0.0 | 0.00 | 0.00 | 0.00 | 92 | 1016.0 |
| 20260901231801 | 74 | 168 | 0.0 | 0.0 | 0.00 | 0.00 | 0.00 | 92 | 1016.0 |
| 20260901231301 | 75 | 168 | 0.0 | 0.0 | 0.00 | 0.00 | 0.00 | 91 | 1015.9 |
| 20260901230801 | 75 | 168 | 0.0 | 0.0 | 0.00 | 0.00 | 0.00 | 92 | 1016.0 |
| 20260901230301 | 75 | 168 | 0.0 | 0.0 | 0.00 | 0.00 | 0.00 | 92 | 1015.9 |
| 20260901225801 | 75 | 168 | 0.0 | 0.0 | 0.00 | 0.00 | 0.00 | 92 | 1015.9 |
| 20260901225301 | 75 | 168 | 1.0 | 2.0 | 0.00 | 0.00 | 0.00 | 91 | 1015.9 |
| 20260901224801 | 76 | 168 | 1.0 | 2.0 | 0.00 | 0.00 | 0.00 | 91 | 1016.0 |
| 20260901224301 | 75 | 168 | 1.0 | 2.0 | 0.00 | 0.00 | 0.00 | 91 | 1016.0 |
| 20260901223801 | 76 | 168 | 1.0 | 4.0 | 0.00 | 0.00 | 0.00 | 91 | 1016.0 |
| 20260901223301 | 76 | 168 | 0.0 | 0.0 | 0.00 | 0.00 | 0.00 | 91 | 1015.9 |
| 20260901222809 | 76 | 168 | 0.0 | 0.0 | 0.00 | 0.00 | 0.00 | 91 | 1016.0 |
| 20260901222301 | 76 | 168 | 0.0 | 0.0 | 0.00 | 0.00 | 0.00 | 91 | 1016.0 |
| 20260901221801 | 76 | 168 | 1.0 | 0.0 | 0.00 | 0.00 | 0.00 | 91 | 1015.9 |
| 20260901221302 | 76 | 168 | 2.0 | 4.0 | 0.00 | 0.00 | 0.00 | 91 | 1015.9 |
| 20260901220802 | 75 | 165 | 1.0 | 5.0 | 0.00 | 0.00 | 0.00 | 90 | 1015.9 |
| 20260901220302 | 76 | 273 | 1.0 | 2.0 | 0.00 | 0.00 | 0.00 | 90 | 1016.0 |
| 20260901215802 | 76 | 273 | 0.0 | 3.0 | 0.00 | 0.00 | 0.00 | 90 | 1015.9 |
| 20260901215302 | 76 | 273 | 1.0 | 0.0 | 0.00 | 0.00 | 0.00 | 90 | 1015.8 |
| 20260901214802 | 76 | 273 | 2.0 | 3.0 | 0.00 | 0.00 | 0.00 | 90 | 1015.8 |
| 20260901214302 | 77 | 273 | 2.0 | 4.0 | 0.00 | 0.00 | 0.00 | 90 | 1015.9 |
| 20260901213802 | 77 | 275 | 0.0 | 3.0 | 0.00 | 0.00 | 0.00 | 90 | 1015.9 |
| 20260901213302 | 77 | 274 | 0.0 | 0.0 | 0.00 | 0.00 | 0.00 | 90 | 1015.8 |
| 20260901212802 | 76 | 274 | 0.0 | 0.0 | 0.00 | 0.00 | 0.00 | 89 | 1015.8 |
| 20260901212305 | 77 | 274 | 0.0 | 0.0 | 0.00 | 0.00 | 0.00 | 89 | 1015.8 |
| 20260901211802 | 77 | 274 | 0.0 | 1.0 | 0.00 | 0.00 | 0.00 | 89 | 1015.8 |
| 20260901211302 | 77 | 274 | 1.0 | 0.0 | 0.00 | 0.00 | 0.00 | 89 | 1015.7 |
| 20260901210802 | 78 | 274 | 1.0 | 4.0 | 0.00 | 0.00 | 0.00 | 89 | 1015.6 |
| 20260901210302 | 78 | 309 | 0.0 | 0.0 | 0.00 | 0.00 | 0.00 | 89 | 1015.7 |
| 20260901205802 | 78 | 309 | 0.0 | 0.0 | 0.00 | 0.00 | 0.00 | 89 | 1015.7 |
| 20260901205305 | 78 | 309 | 0.0 | 0.0 | 0.00 | 0.00 | 0.00 | 89 | 1015.7 |
| 20260901204802 | 78 | 309 | 1.0 | 2.0 | 0.00 | 0.00 | 0.00 | 89 | 1015.6 |
| 20260901204302 | 78 | 288 | 1.0 | 3.0 | 0.00 | 0.00 | 0.00 | 88 | 1015.6 |
| 20260901203802 | 78 | 288 | 1.0 | 2.0 | 0.00 | 0.00 | 0.00 | 88 | 1015.7 |
| 20260901203302 | 78 | 288 | 1.0 | 3.0 | 0.00 | 0.00 | 0.00 | 88 | 1015.6 |
| 20260901202802 | 78 | 288 | 1.0 | 2.0 | 0.00 | 0.00 | 0.00 | 88 | 1015.6 |
| 20260901202305 | 78 | 288 | 2.0 | 3.0 | 0.00 | 0.00 | 0.00 | 88 | 1015.5 |
| 20260901201802 | 79 | 288 | 2.0 | 3.0 | 0.00 | 0.00 | 0.00 | 87 | 1015.5 |
| 20260901201302 | 79 | 232 | 1.0 | 3.0 | 0.00 | 0.00 | 0.00 | 87 | 1015.4 |
| 20260901200802 | 79 | 100 | 1.0 | 2.0 | 0.00 | 0.00 | 0.00 | 87 | 1015.5 |
| 20260901200302 | 79 | 100 | 1.0 | 2.0 | 0.00 | 0.00 | 0.00 | 87 | 1015.5 |
| 20260901195802 | 79 | 100 | 1.0 | 2.0 | 0.00 | 0.00 | 0.00 | 87 | 1015.4 |
| 20260901195305 | 79 | 88 | 1.0 | 3.0 | 0.00 | 0.00 | 0.00 | 87 | 1015.5 |
| 20260901194802 | 79 | 88 | 1.0 | 2.0 | 0.00 | 0.00 | 0.00 | 87 | 1015.3 |
| 20260901194302 | 79 | 87 | 1.0 | 1.0 | 0.00 | 0.00 | 0.00 | 87 | 1015.2 |
| 20260901193802 | 79 | 87 | 2.0 | 3.0 | 0.00 | 0.00 | 0.00 | 87 | 1015.3 |
| 20260901193302 | 80 | 87 | 2.0 | 3.0 | 0.00 | 0.00 | 0.00 | 87 | 1015.2 |
| 20260901192802 | 80 | 126 | 1.0 | 2.0 | 0.00 | 0.00 | 0.00 | 86 | 1015.4 |
| 20260901192306 | 80 | 171 | 0.0 | 2.0 | 0.00 | 0.00 | 0.00 | 86 | 1015.3 |
| 20260901191802 | 80 | 171 | 0.0 | 0.0 | 0.00 | 0.00 | 0.00 | 86 | 1015.3 |
| 20260901191302 | 80 | 171 | 0.0 | 1.0 | 0.00 | 0.00 | 0.00 | 86 | 1015.3 |
| 20260901190802 | 80 | 171 | 0.0 | 0.0 | 0.00 | 0.00 | 0.00 | 86 | 1015.3 |
| 20260901190302 | 80 | 171 | 1.0 | 1.0 | 0.00 | 0.00 | 0.00 | 85 | 1015.2 |
| 20260901185802 | 80 | 171 | 1.0 | 1.0 | 0.00 | 0.00 | 0.00 | 85 | 1015.1 |
| 20260901185305 | 80 | 171 | 2.0 | 2.0 | 0.00 | 0.00 | 0.00 | 85 | 1015.1 |
| 20260901184802 | 80 | 171 | 2.0 | 4.0 | 0.00 | 0.00 | 0.00 | 85 | 1015.0 |
| 20260901184302 | 81 | 163 | 3.0 | 4.0 | 0.00 | 0.00 | 0.00 | 85 | 1015.1 |
| 20260901183802 | 81 | 143 | 3.0 | 4.0 | 0.00 | 0.00 | 0.00 | 85 | 1015.1 |
| 20260901183302 | 81 | 133 | 3.0 | 5.0 | 0.00 | 0.00 | 0.00 | 85 | 1014.9 |
| 20260901182802 | 81 | 101 | 2.0 | 6.0 | 0.00 | 0.00 | 0.00 | 85 | 1015.0 |
| 20260901182305 | 81 | 90 | 1.0 | 4.0 | 0.00 | 0.00 | 0.00 | 84 | 1014.8 |
| 20260901181802 | 81 | 80 | 1.0 | 1.0 | 0.00 | 0.00 | 0.00 | 84 | 1014.7 |
| 20260901181302 | 81 | 80 | 3.0 | 4.0 | 0.00 | 0.00 | 0.00 | 84 | 1014.6 |
| 20260901180802 | 81 | 86 | 3.0 | 4.0 | 0.00 | 0.00 | 0.00 | 84 | 1014.5 |
| 20260901180302 | 82 | 98 | 3.0 | 5.0 | 0.00 | 0.00 | 0.00 | 83 | 1014.4 |
| 20260901175802 | 82 | 126 | 4.0 | 5.0 | 0.00 | 0.00 | 0.00 | 83 | 1014.3 |
| 20260901175305 | 82 | 121 | 5.0 | 7.0 | 0.00 | 0.00 | 0.00 | 83 | 1014.3 |
| 20260901174802 | 82 | 113 | 5.0 | 7.0 | 0.00 | 0.00 | 0.00 | 83 | 1014.3 |
| 20260901174302 | 82 | 105 | 6.0 | 7.0 | 0.00 | 0.00 | 0.00 | 82 | 1014.2 |
| 20260901173802 | 82 | 98 | 7.0 | 8.0 | 0.00 | 0.00 | 0.00 | 81 | 1014.2 |
| 20260901173302 | 83 | 94 | 6.0 | 8.0 | 0.00 | 0.00 | 0.00 | 80 | 1014.2 |
| 20260901172802 | 83 | 99 | 4.0 | 7.0 | 0.00 | 0.00 | 0.00 | 79 | 1014.1 |
| 20260901172304 | 83 | 89 | 5.0 | 6.0 | 0.00 | 0.00 | 0.00 | 78 | 1014.0 |
| 20260901171802 | 84 | 116 | 6.0 | 8.0 | 0.00 | 0.00 | 0.00 | 78 | 1014.1 |
| 20260901171302 | 84 | 90 | 6.0 | 8.0 | 0.00 | 0.00 | 0.00 | 77 | 1013.9 |
| 20260901170802 | 85 | 115 | 6.0 | 8.0 | 0.00 | 0.00 | 0.00 | 76 | 1013.8 |
| 20260901170302 | 85 | 89 | 5.0 | 7.0 | 0.00 | 0.00 | 0.00 | 74 | 1013.8 |
| 20260901165802 | 86 | 114 | 4.0 | 7.0 | 0.00 | 0.00 | 0.00 | 73 | 1014.0 |
| 20260901165306 | 86 | 126 | 5.0 | 7.0 | 0.00 | 0.00 | 0.00 | 72 | 1014.0 |
| 20260901164803 | 86 | 130 | 6.0 | 9.0 | 0.00 | 0.00 | 0.00 | 71 | 1013.9 |
| 20260901164302 | 87 | 146 | 6.0 | 9.0 | 0.00 | 0.00 | 0.00 | 71 | 1013.9 |
| 20260901163802 | 87 | 133 | 6.0 | 9.0 | 0.00 | 0.00 | 0.00 | 70 | 1013.9 |
| 20260901163302 | 87 | 135 | 7.0 | 10.0 | 0.00 | 0.00 | 0.00 | 69 | 1013.9 |
| 20260901162802 | 88 | 134 | 8.0 | 11.0 | 0.00 | 0.00 | 0.00 | 69 | 1013.8 |
| 20260901162305 | 88 | 146 | 8.0 | 12.0 | 0.00 | 0.00 | 0.00 | 68 | 1013.7 |
| 20260901161802 | 88 | 123 | 6.0 | 10.0 | 0.00 | 0.00 | 0.00 | 67 | 1014.0 |
| 20260901161302 | 89 | 111 | 6.0 | 10.0 | 0.00 | 0.00 | 0.00 | 67 | 1014.0 |
| 20260901160802 | 89 | 128 | 7.0 | 12.0 | 0.00 | 0.00 | 0.00 | 66 | 1014.1 |
| 20260901160302 | 90 | 121 | 5.0 | 10.0 | 0.00 | 0.00 | 0.00 | 64 | 1014.1 |
| 20260901155802 | 91 | 148 | 2.0 | 9.0 | 0.00 | 0.00 | 0.00 | 62 | 1014.0 |
| 20260901155305 | 91 | 217 | 2.0 | 3.0 | 0.00 | 0.00 | 0.00 | 61 | 1013.9 |
| 20260901154802 | 91 | 215 | 3.0 | 4.0 | 0.00 | 0.00 | 0.00 | 61 | 1013.9 |
| 20260901154302 | 91 | 220 | 3.0 | 5.0 | 0.00 | 0.00 | 0.00 | 62 | 1014.0 |
| 20260901153802 | 91 | 256 | 4.0 | 6.0 | 0.00 | 0.00 | 0.00 | 62 | 1013.9 |
| 20260901153302 | 91 | 182 | 3.0 | 6.0 | 0.00 | 0.00 | 0.00 | 62 | 1014.0 |
| 20260901152802 | 91 | 202 | 2.0 | 5.0 | 0.00 | 0.00 | 0.00 | 62 | 1014.0 |
| 20260901152305 | 91 | 165 | 2.0 | 5.0 | 0.00 | 0.00 | 0.00 | 61 | 1013.9 |
| 20260901151802 | 91 | 184 | 2.0 | 5.0 | 0.00 | 0.00 | 0.00 | 61 | 1013.9 |
| 20260901151302 | 91 | 188 | 3.0 | 5.0 | 0.00 | 0.00 | 0.00 | 61 | 1013.9 |
| 20260901150802 | 91 | 175 | 3.0 | 5.0 | 0.00 | 0.00 | 0.00 | 61 | 1013.8 |
| 20260901150302 | 91 | 119 | 3.0 | 5.0 | 0.00 | 0.00 | 0.00 | 60 | 1013.7 |
| 20260901145802 | 91 | 146 | 4.0 | 7.0 | 0.00 | 0.00 | 0.00 | 60 | 1013.7 |
| 20260901145306 | 92 | 223 | 3.0 | 6.0 | 0.00 | 0.00 | 0.00 | 60 | 1013.7 |
| 20260901144802 | 91 | 165 | 3.0 | 5.0 | 0.00 | 0.00 | 0.00 | 59 | 1013.6 |
| 20260901144302 | 92 | 194 | 4.0 | 8.0 | 0.00 | 0.00 | 0.00 | 60 | 1013.6 |
| 20260901143802 | 91 | 263 | 5.0 | 7.0 | 0.00 | 0.00 | 0.00 | 61 | 1013.7 |
| 20260901143302 | 92 | 221 | 5.0 | 8.0 | 0.00 | 0.00 | 0.00 | 59 | 1013.7 |
| 20260901142802 | 92 | 229 | 6.0 | 8.0 | 0.00 | 0.00 | 0.00 | 61 | 1013.8 |
| 20260901142305 | 91 | 271 | 6.0 | 10.0 | 0.00 | 0.00 | 0.00 | 61 | 1013.7 |
| 20260901141802 | 91 | 225 | 5.0 | 10.0 | 0.00 | 0.00 | 0.00 | 63 | 1013.6 |
| 20260901141302 | 91 | 248 | 6.0 | 8.0 | 0.00 | 0.00 | 0.00 | 61 | 1013.7 |
| 20260901140802 | 91 | 286 | 7.0 | 12.0 | 0.00 | 0.00 | 0.00 | 61 | 1013.8 |
| 20260901140302 | 91 | 292 | 7.0 | 11.0 | 0.00 | 0.00 | 0.00 | 61 | 1013.7 |
| 20260901135802 | 91 | 235 | 8.0 | 10.0 | 0.00 | 0.00 | 0.00 | 62 | 1013.8 |
| 20260901135305 | 90 | 275 | 8.0 | 14.0 | 0.00 | 0.00 | 0.00 | 62 | 1013.8 |
| 20260901134802 | 90 | 273 | 9.0 | 13.0 | 0.00 | 0.00 | 0.00 | 62 | 1013.8 |
| 20260901134302 | 90 | 296 | 9.0 | 14.0 | 0.00 | 0.00 | 0.00 | 62 | 1013.8 |
| 20260901133802 | 91 | 273 | 7.0 | 14.0 | 0.00 | 0.00 | 0.00 | 63 | 1013.8 |
| 20260901133302 | 91 | 263 | 8.0 | 11.0 | 0.00 | 0.00 | 0.00 | 64 | 1013.9 |
| 20260901132802 | 90 | 267 | 8.0 | 12.0 | 0.00 | 0.00 | 0.00 | 64 | 1014.0 |
| 20260901132306 | 90 | 246 | 9.0 | 13.0 | 0.00 | 0.00 | 0.00 | 63 | 1014.1 |
| 20260901131803 | 90 | 221 | 9.0 | 12.0 | 0.00 | 0.00 | 0.00 | 65 | 1014.2 |
| 20260901131303 | 90 | 236 | 10.0 | 15.0 | 0.00 | 0.00 | 0.00 | 65 | 1014.2 |
| 20260901130802 | 90 | 242 | 9.0 | 16.0 | 0.00 | 0.00 | 0.00 | 65 | 1014.1 |
| 20260901130302 | 90 | 224 | 9.0 | 12.0 | 0.00 | 0.00 | 0.00 | 65 | 1014.2 |
| 20260901125802 | 90 | 230 | 10.0 | 17.0 | 0.00 | 0.00 | 0.00 | 65 | 1014.2 |
| 20260901125308 | 90 | 242 | 10.0 | 17.0 | 0.00 | 0.00 | 0.00 | 64 | 1014.2 |
| 20260901124803 | 90 | 247 | 10.0 | 17.0 | 0.00 | 0.00 | 0.00 | 63 | 1014.1 |
| 20260901124303 | 90 | 260 | 10.0 | 16.0 | 0.00 | 0.00 | 0.00 | 64 | 1014.1 |
| 20260901123803 | 90 | 242 | 10.0 | 15.0 | 0.00 | 0.00 | 0.00 | 62 | 1014.1 |